Miscellaneous Local Product
Issued by NWS Hastings, NE

Home | Current Version | Previous Version | Graphics & Text | Print | Product List | Glossary On
Versions: 1 2 3 4 5 6 7 8 9 10 11 12 13 14 15 16 17 18 19 20 21 22 23 24 25 26 27 28 29 30 31 32 33 34 35 36 37 38 39 40 41 42 43 44 45 46 47 48 49 50
000
AXUS43 KGID 221602
MISGRI

GID CWA HOURLY WEATHER ROUNDUP
NATIONAL WEATHER SERVICE HASTINGS NE
1100 AM CDT WED OCT 22 2014

NOTE: "FAIR" INDICATES FEW OR NO CLOUDS BELOW 12,000 FEET WITH NO
SIGNIFICANT WEATHER AND/OR OBSTRUCTIONS TO VISIBILITY.

...SOUTH CENTRAL NEBRASKA...

CITY           SKY/WX    TMP DP  RH WIND       PRES   REMARKS
GRAND ISLAND   PTSUNNY   67  55  65 S17G25    30.01S
HASTINGS       PTSUNNY   66  53  63 S13       30.02S
KEARNEY        CLOUDY    63  54  72 S12       30.03R
ORD            PTSUNNY   62  54  74 S15       29.99R
YORK           SUNNY     66  54  63 S16       30.04F
AURORA         MOSUNNY   66  54  63 S15G21    30.02F
LEXINGTON      CLOUDY    62  53  73 S5        30.02R
HOLDREGE       CLOUDY    62  53  72 S14G20    30.02R
HEBRON         SUNNY     68  53  58 S12G20    30.06S

...NEBRASKA PANHANDLE...

CITY           SKY/WX    TMP DP  RH WIND       PRES   REMARKS
CHADRON        PTSUNNY   55  37  50 NW15      30.04R
ALLIANCE       SUNNY     55  38  52 NW13      30.05R
SCOTTSBLUFF    MOSUNNY   55  40  56 W8        30.08R
SIDNEY         SUNNY     59  40  49 NW16      30.08S

...WESTERN AND NORTH CENTRAL NEBRASKA...

CITY           SKY/WX    TMP DP  RH WIND       PRES   REMARKS
VALENTINE      LGT RAIN  51  47  86 N8        29.99F FOG
AINSWORTH      DRIZZLE   55  49  82 NW8       29.99R
ONEILL         CLOUDY    65  56  74 S13G18    29.97S
BROKEN BOW     PTSUNNY   64  53  67 SW8       29.99R
IMPERIAL       CLOUDY    61  50  67 N6        30.03R
NORTH PLATTE   NOT AVBL
MCCOOK         CLOUDY    62  50  64 S7        30.01R

...EASTERN NEBRASKA...

CITY           SKY/WX    TMP DP  RH WIND       PRES   REMARKS
NORFOLK        MOSUNNY   65  50  58 S18G25    30.00F
SO SIOUX CITY  SUNNY     63  47  55 S17G24    30.06S
TEKAMAH        SUNNY     66  48  52 SE21      30.06F
COLUMBUS       MOSUNNY   64  48  55 S15       30.04S
ALBION         PTSUNNY   65  53  65 S16G22    30.00R
OMAHA EPPLEY   MOSUNNY   63  46  54 S18       30.10F
OFFUTT AFB     SUNNY     63  50  61 SE15      30.10F
LINCOLN        SUNNY     67  51  56 S15       30.08S
NEBRASKA CITY  SUNNY     63  45  51 S13G22    30.12F
BEATRICE       SUNNY     66  53  61 SE9       30.09S
FALLS CITY     SUNNY     64  50  60 SE13G22   30.14S

...NORTHERN KANSAS...

CITY           SKY/WX    TMP DP  RH WIND       PRES   REMARKS
GOODLAND       CLOUDY    58  49  72 NW9       30.04S
HILL CITY      LGT RAIN  65  54  67 S13       30.03R
NORTON         RAIN      59  52  77 S7        30.02R
PHILLIPSBURG   PTSUNNY   70  54  56 S8        30.02S
SMITH CENTER   SUNNY     70  54  56 S17G24    30.03S
BELOIT         SUNNY     68  55  64 SE16      30.04F
HAYS           MOSUNNY   70  52  52 S17       30.04R
RUSSELL        MOSUNNY   69  53  56 S20G28    30.03F
CONCORDIA      SUNNY     69  56  62 S13       30.08S
SALINA         SUNNY     72  56  57 S15       30.10R
TOPEKA         SUNNY     66  54  65 SE10      30.16S



USA.gov is the U.S. government's official web portal to all federal, state and local government web resources and services.